Regional Weather Roundup
Issued by NWS Sioux Falls, SD

Home | Current Version | Previous Version | Text Only | Print | Product List | Glossary Off
Versions: 1 2 3 4 5 6 7 8 9 10 11 12 13 14 15 16 17 18 19 20 21 22 23 24 25 26 27 28 29 30 31 32 33 34 35 36 37 38 39 40 41 42 43 44 45 46 47 48 49 50

000
ASUS43 KFSD 021010
RWRFSD

WEATHER ROUNDUP FOR SE SOUTH DAKOTA/SW MINNESOTA/NW IOWA
NATIONAL WEATHER SERVICE SIOUX FALLS SD
500 AM CDT TUE SEP 02 2014

NOTE: "FAIR" INDICATES FEW OR NO CLOUDS BELOW 12,000 FEET WITH NO
SIGNIFICANT WEATHER AND OR OBSTRUCTIONS TO VISIBILITY.


SDZ038>040-050-052>070-021100-
SOUTHEAST SOUTH DAKOTA

CITY           SKY/WX    TMP DP  RH WIND       PRES   REMARKS
CHAMBERLAIN    CLEAR     53  51  94 SW6       29.94S
HURON          CLEAR     53  52  96 S3        29.90F
MADISON        FAIR      55  55 100 W8        29.92F
MITCHELL       CLEAR     57  55  93 W8        29.92S
SIOUX FALLS    CLEAR     57  54  89 CALM      29.93R
WINNER         FAIR      54  49  83 SW8       29.96S
YANKTON        CLEAR     57  55  94 W6        29.94S
$$

MNZ071-072-080-081-089-090-097-098-021100-
SOUTHWEST MINNESOTA

CITY           SKY/WX    TMP DP  RH WIND       PRES   REMARKS
FAIRMONT       CLOUDY    61  52  72 NW10      29.90R
JACKSON        CLOUDY    59  54  82 W5        29.91F
LUVERNE        PTCLDY    55  54  94 CALM      29.92F
MARSHALL       MOCLDY    59  54  82 W8        29.89R
MONTEVIDEO     PTCLDY    57  54  88 W6        29.88R
PIPESTONE      PTCLDY    54  52  94 W3        29.93R
REDWOOD FALLS  CLOUDY    62  55  77 W8        29.87S
TRACY          CLOUDY    61  55  79 W5        29.90S
WINDOM         CLOUDY    61  55  82 CALM      29.90F
WORTHINGTON    CLOUDY    59  55  88 W6        29.93F
$$

IAZ001>003-012>014-020>022-031-032-NEZ013-014-SDZ071-021100-
NORTHWEST IOWA

CITY           SKY/WX    TMP DP  RH WIND       PRES   REMARKS
CHEROKEE       PTCLDY    57  57 100 CALM      29.94R
DENISON        PTCLDY    57  57 100 NW5G12    29.92R
ESTHERVILLE    CLOUDY    58  55  90 W7        29.92R
LE MARS        CLEAR     57  55  94 W7        29.94R
ORANGE CITY    PTCLDY    57  54  88 NW6       29.94S
SHELDON        PTCLDY    54  54 100 CALM      29.92S
SIOUX CITY     CLEAR     55  54  96 CALM      29.94
SPENCER        MOCLDY    58  55  90 NW6       29.92S
STORM LAKE     PTCLDY    55  55 100 NW6       29.93R
$$

ABBREVIATIONS USED IN REMARKS
   TC - TEMPERATURE IN CELSIUS
  WCI - WIND CHILL INDEX
   HX - HEAT INDEX
  VSB - VISIBILITY




USA.gov is the U.S. government's official web portal to all federal, state and local government web resources and services.